Flag for Mexico Weather past 2 weeks in Merida, Yucatán, Mexico

Now
75 °F

Passing clouds.


Feels Like: 73 °F
Forecast: 75 / 85 °F
Wind: 8 mph from East

Location: Aerop. Internacional Merida - Yuc

Current Time: Sep 1, 2014 at 3:49:44 AM

Latest Report: Sep 1, 2014 at 2:54 AM


Visibility: 6 mi

Pressure: 29.91 "Hg

Humidity: 100%

Dew point: 75 °F

Location of MeridaLocation

Historic Weather in Merida — Graph

°F

Merida temperature yesterday

Maximum temperature yesterday: 88 °F (at 11:47 AM)
Minimum temperature yesterday: 75 °F (at 3:42 AM)
Average temperature yesterday: 78 °F

Past Weeks' High & Low Weather Summary

 TemperatureHumidityPressure
High95 °F (Aug 19, 4:42 PM)100% (Aug 17, 5:49 AM)30.39 "Hg (Aug 17, 5:49 AM)
Low72 °F (Aug 23, 3:47 AM)34% (Aug 27, 1:41 PM)29.78 "Hg (Aug 28, 4:24 PM)
Average82 °F77%29.93 "Hg
* Reported Aug 17 2:47 AM — Sep 1 2:54 AM, Merida, Weather by CustomWeather, © 2014

Note: Actual official high and low records may vary slightly from our data, if they occured in-between our weather recording intervals... More about our weather records

Advertising

Merida weather history for previous 24 hours

 ConditionsComfort  
Time TempWeatherWind HumidityBarometerVisibility
2:54 AM
Sep 1
75 °FPassing clouds.8 mph100%29.91 "Hg6 mi
1:54 AM75 °FPassing clouds.6 mph100%29.92 "Hg6 mi
12:53 AM75 °FPassing clouds.9 mph100%29.95 "Hg6 mi
11:52 PM
Aug 31
75 °FPassing clouds.9 mph100%29.94 "Hg7 mi
10:47 PM75 °FPassing clouds.12 mph100%29.92 "Hg7 mi
9:45 PM77 °FPassing clouds.15 mph83%29.89 "Hg7 mi
8:47 PM77 °FPassing clouds.8 mph89%29.90 "Hg7 mi
7:46 PM79 °FScattered clouds.15 mph84%29.89 "Hg7 mi
4:46 PM82 °FPartly sunny.7 mph70%29.86 "Hg6 mi
1:47 PM79 °FBroken clouds.12 mph84%29.91 "Hg6 mi
1:21 PM77 °FCloudy.12 mph100%29.92 "Hg5 mi
11:47 AM88 °FPartly sunny.12 mph62%29.93 "Hg7 mi
10:41 AM86 °FPartly sunny.14 mph66%29.94 "Hg7 mi
9:41 AM82 °FPartly sunny.9 mph79%29.89 "Hg7 mi
8:46 AM79 °FBroken clouds.9 mph79%29.92 "Hg7 mi
8:26 AM79 °FBroken clouds.8 mph79%29.92 "Hg7 mi
7:46 AM77 °FPartly sunny.7 mph83%29.92 "Hg7 mi
6:40 AM75 °FPartly cloudy.6 mph100%29.90 "Hg7 mi
5:41 AM75 °FPassing clouds.No wind100%29.89 "Hg7 mi
4:45 AM75 °FPassing clouds.3 mph94%29.87 "Hg7 mi
3:42 AM75 °FClear.6 mph94%29.89 "Hg7 mi
Weather by CustomWeather, © 2014

See weather overviewHow to use our weather pages